• In Deutschland
  • Länderverzeichnis
  • Für 7 Tage
  • Wassertemperatur
  • Satellitenkarten
  • Wetterkarte
  • Widgets
  • user-avatar
    Anmelden

    Stündliche Wetter Nendeln

    Heute, 14 Dezember, Donnerstag

    Zeit Temperatur Niederschläge Wind Luftdruck Luftfeuchtigkeit
    00:00 -5°C° 0,4 mm 5 m/S 660 mmHg 72%
    01:00 -4°C° 0,4 mm 5 m/S 660 mmHg 73%
    02:00 -4°C° 0,4 mm 5 m/S 660 mmHg 77%
    03:00 -2°C° 0,4 mm 5 m/S 660 mmHg 81%
    04:00 -2°C° 0,4 mm 5 m/S 660 mmHg 85%
    05:00 -2°C° 0,6 mm 5 m/S 660 mmHg 86%
    06:00 -2°C° 0,6 mm 5 m/S 660 mmHg 88%
    07:00 -3°C° 0,6 mm 6 m/S 661 mmHg 89%
    08:00 -2°C° 0,7 mm 5 m/S 661 mmHg 90%
    09:00 -2°C° 0,7 mm 5 m/S 661 mmHg 91%
    10:00 -2°C° 0,7 mm 4 m/S 662 mmHg 92%
    11:00 -2°C° 0,8 mm 4 m/S 662 mmHg 91%
    12:00 -2°C° 0,8 mm 4 m/S 661 mmHg 91%
    13:00 -2°C° 0,8 mm 4 m/S 661 mmHg 91%
    14:00 -1°C° 0,4 mm 3 m/S 661 mmHg 91%
    15:00 -1°C° 0,4 mm 3 m/S 660 mmHg 91%
    16:00 -1°C° 0,4 mm 2 m/S 660 mmHg 91%
    17:00 -1°C° 0,6 mm 2 m/S 659 mmHg 91%
    18:00 -2°C° 0,6 mm 3 m/S 659 mmHg 91%
    19:00 -2°C° 0,6 mm 3 m/S 658 mmHg 91%
    20:00 -2°C° 1,1 mm 3 m/S 658 mmHg 89%
    21:00 -2°C° 1,1 mm 3 m/S 657 mmHg 88%
    22:00 -2°C° 1,1 mm 3 m/S 657 mmHg 86%
    23:00 -2°C° 1,8 mm 3 m/S 656 mmHg 88%

    Morgen, 15 Dezember, Freitag

    Zeit Temperatur Niederschläge Wind Luftdruck Luftfeuchtigkeit
    00:00 -2°C° 1,8 mm 3 m/S 656 mmHg 90%
    01:00 -2°C° 1,8 mm 3 m/S 656 mmHg 91%
    02:00 -3°C° 2 mm 4 m/S 656 mmHg 93%
    03:00 -3°C° 2 mm 4 m/S 656 mmHg 94%
    04:00 -3°C° 2 mm 4 m/S 657 mmHg 95%
    05:00 -3°C° 0,4 mm 4 m/S 657 mmHg 94%
    06:00 -4°C° 0,4 mm 3 m/S 657 mmHg 93%
    07:00 -4°C° 0,4 mm 2 m/S 658 mmHg 91%
    08:00 -4°C° 0 mm 2 m/S 658 mmHg 90%
    09:00 -4°C° 0 mm 2 m/S 658 mmHg 88%
    10:00 -4°C° 0 mm 2 m/S 658 mmHg 87%
    11:00 -3°C° 0 mm 2 m/S 658 mmHg 84%
    12:00 -2°C° 0 mm 2 m/S 658 mmHg 82%
    13:00 -1°C° 0 mm 2 m/S 657 mmHg 79%
    14:00 -2°C° 0 mm 2 m/S 657 mmHg 82%
    15:00 -3°C° 0 mm 2 m/S 657 mmHg 84%
    16:00 -5°C° 0 mm 2 m/S 657 mmHg 87%
    17:00 -6°C° 0 mm 2 m/S 657 mmHg 84%
    18:00 -7°C° 0 mm 2 m/S 658 mmHg 82%
    19:00 -8°C° 0 mm 2 m/S 658 mmHg 80%
    20:00 -8°C° 0 mm 2 m/S 658 mmHg 78%
    21:00 -8°C° 0 mm 2 m/S 658 mmHg 76%
    22:00 -9°C° 0 mm 2 m/S 659 mmHg 73%
    23:00 -8°C° 0 mm 2 m/S 659 mmHg 75%

    übermorgen, 16 Dezember, Samstag

    Zeit Temperatur Niederschläge Wind Luftdruck Luftfeuchtigkeit
    00:00 -8°C° 0 mm 2 m/S 659 mmHg 76%
    01:00 -8°C° 0 mm 2 m/S 660 mmHg 77%
    02:00 -8°C° 0 mm 2 m/S 660 mmHg 78%
    03:00 -8°C° 0 mm 2 m/S 660 mmHg 78%
    04:00 -8°C° 0 mm 2 m/S 660 mmHg 79%
    05:00 -8°C° 0,1 mm 2 m/S 661 mmHg 81%
    06:00 -8°C° 0,1 mm 2 m/S 661 mmHg 83%
    07:00 -8°C° 0,1 mm 2 m/S 662 mmHg 85%
    08:00 -7°C° 0,3 mm 2 m/S 662 mmHg 87%
    09:00 -6°C° 0,3 mm 2 m/S 663 mmHg 88%
    10:00 -5°C° 0,3 mm 2 m/S 664 mmHg 90%
    11:00 -5°C° 0,5 mm 2 m/S 664 mmHg 91%
    12:00 -4°C° 0,5 mm 2 m/S 664 mmHg 92%
    13:00 -4°C° 0,5 mm 2 m/S 664 mmHg 93%
    14:00 -4°C° 0,4 mm 2 m/S 665 mmHg 94%
    15:00 -4°C° 0,4 mm 2 m/S 665 mmHg 94%
    16:00 -4°C° 0,4 mm 2 m/S 665 mmHg 95%
    17:00 -4°C° 0,3 mm 2 m/S 666 mmHg 96%
    18:00 -5°C° 0,3 mm 2 m/S 666 mmHg 96%
    19:00 -3°C° 0,3 mm 1 m/S 667 mmHg 97%
    20:00 -4°C° 0,3 mm 1 m/S 667 mmHg 97%
    21:00 -4°C° 0,3 mm 1 m/S 668 mmHg 96%
    22:00 -4°C° 0,3 mm 1 m/S 668 mmHg 96%
    23:00 -4°C° 0,5 mm 1 m/S 669 mmHg 96%

    17 Dezember, Sonntag

    Zeit Temperatur Niederschläge Wind Luftdruck Luftfeuchtigkeit
    00:00 -6°C° 0,5 mm 2 m/S 669 mmHg 97%
    01:00 -6°C° 0,5 mm 2 m/S 669 mmHg 97%
    02:00 -6°C° 0,4 mm 2 m/S 670 mmHg 97%
    03:00 -6°C° 0,4 mm 2 m/S 670 mmHg 97%
    04:00 -7°C° 0,4 mm 2 m/S 670 mmHg 97%
    05:00 -7°C° 0,2 mm 2 m/S 670 mmHg 97%
    06:00 -7°C° 0,2 mm 2 m/S 671 mmHg 97%
    07:00 -7°C° 0,2 mm 2 m/S 671 mmHg 97%
    08:00 -7°C° 0,1 mm 2 m/S 672 mmHg 96%
    09:00 -7°C° 0,1 mm 2 m/S 672 mmHg 95%
    10:00 -6°C° 0,1 mm 2 m/S 673 mmHg 94%
    11:00 -6°C° 0,1 mm 2 m/S 673 mmHg 92%
    12:00 -6°C° 0,1 mm 2 m/S 673 mmHg 90%
    13:00 -5°C° 0,1 mm 2 m/S 673 mmHg 88%
    14:00 -6°C° 0 mm 2 m/S 673 mmHg 90%
    15:00 -7°C° 0 mm 2 m/S 673 mmHg 91%
    16:00 -7°C° 0 mm 2 m/S 673 mmHg 92%
    17:00 -8°C° 0 mm 2 m/S 674 mmHg 92%
    18:00 -9°C° 0 mm 2 m/S 674 mmHg 92%
    19:00 -10°C° 0 mm 2 m/S 675 mmHg 91%
    20:00 -10°C° 0 mm 2 m/S 675 mmHg 90%
    21:00 -12°C° 0 mm 2 m/S 675 mmHg 89%
    22:00 -12°C° 0 mm 2 m/S 675 mmHg 87%
    23:00 -13°C° 0 mm 2 m/S 675 mmHg 86%

    18 Dezember, Montag

    Zeit Temperatur Niederschläge Wind Luftdruck Luftfeuchtigkeit
    00:00 -13°C° 0 mm 2 m/S 675 mmHg 85%
    01:00 -13°C° 0 mm 2 m/S 675 mmHg 83%
    02:00 -13°C° 0 mm 2 m/S 675 mmHg 82%
    03:00 -13°C° 0 mm 2 m/S 675 mmHg 81%
    04:00 -13°C° 0 mm 2 m/S 675 mmHg 80%
    05:00 -12°C° 0 mm 2 m/S 676 mmHg 80%
    06:00 -10°C° 0 mm 2 m/S 676 mmHg 80%
    07:00 -9°C° 0 mm 2 m/S 676 mmHg 80%
    08:00 -8°C° 0 mm 2 m/S 676 mmHg 82%
    09:00 -7°C° 0 mm 2 m/S 677 mmHg 83%
    10:00 -6°C° 0 mm 2 m/S 677 mmHg 84%
    11:00 -5°C° 0,1 mm 2 m/S 676 mmHg 84%
    12:00 -4°C° 0,1 mm 2 m/S 676 mmHg 84%
    13:00 -4°C° 0,1 mm 3 m/S 675 mmHg 84%
    14:00 -4°C° 0,4 mm 3 m/S 675 mmHg 87%
    15:00 -5°C° 0,4 mm 3 m/S 674 mmHg 89%
    16:00 -5°C° 0,4 mm 3 m/S 674 mmHg 92%
    17:00 -5°C° 1,5 mm 3 m/S 674 mmHg 93%
    18:00 -4°C° 1,5 mm 3 m/S 674 mmHg 94%
    19:00 -4°C° 1,5 mm 3 m/S 674 mmHg 95%
    20:00 -4°C° 1,5 mm 3 m/S 674 mmHg 96%
    21:00 -4°C° 1,5 mm 3 m/S 674 mmHg 96%
    22:00 -2°C° 1,5 mm 2 m/S 675 mmHg 97%
    23:00 -2°C° 1 mm 2 m/S 675 mmHg 97%

    19 Dezember, Dienstag

    Zeit Temperatur Niederschläge Wind Luftdruck Luftfeuchtigkeit
    00:00 -2°C° 1 mm 2 m/S 675 mmHg 97%
    01:00 -2°C° 1 mm 2 m/S 675 mmHg 97%
    02:00 -2°C° 0,3 mm 2 m/S 676 mmHg 97%
    03:00 -2°C° 0,3 mm 2 m/S 676 mmHg 97%
    04:00 0°C° 0,3 mm 1 m/S 676 mmHg 97%
    05:00 -1°C° 0 mm 1 m/S 677 mmHg 96%
    06:00 -1°C° 0 mm 1 m/S 677 mmHg 96%
    07:00 -1°C° 0 mm 1 m/S 677 mmHg 95%
    08:00 -1°C° 0 mm 1 m/S 678 mmHg 95%
    09:00 0°C° 0 mm 1 m/S 678 mmHg 95%
    10:00 +1°C° 0 mm 1 m/S 679 mmHg 96%
    11:00 +1°C° 0 mm 1 m/S 679 mmHg 96%
    12:00 +1°C° 0 mm 1 m/S 679 mmHg 96%
    13:00 +2°C° 0 mm 1 m/S 679 mmHg 96%
    14:00 +1°C° 0 mm 1 m/S 679 mmHg 96%
    15:00 +1°C° 0 mm 1 m/S 679 mmHg 95%
    16:00 0°C° 0 mm 1 m/S 679 mmHg 95%
    17:00 -1°C° 0 mm 1 m/S 679 mmHg 95%
    18:00 -1°C° 0 mm 1 m/S 679 mmHg 94%
    19:00 -2°C° 0 mm 1 m/S 680 mmHg 93%
    20:00 -2°C° 0 mm 1 m/S 680 mmHg 91%
    21:00 -2°C° 0 mm 1 m/S 680 mmHg 89%
    22:00 -2°C° 0 mm 1 m/S 681 mmHg 86%
    23:00 -2°C° 0 mm 1 m/S 680 mmHg 84%
    Mehr zeigen